Location: Gwatt
(46.7204°N, 7.6223°E)
Time: 23:14:01
(UTC+00:00)

Courier 1B Rocket - Pass Details

Date: 28 January 2021
Orbit: 920 x 1202 km, 28.3° (Epoch: 25 February)

Event Time Altitude Azimuth Distance (km) Brightness Sun altitude
Exits shadow 05:25:55 - 223° (SW) 3,548 7.6 -15.9°
Reaches altitude 10° 05:29:40 10° 200° (SSW) 2,718 7.2 -15.2°
Maximum altitude 05:32:52 14° 170° (S) 2,474 7.4 -14.7°
Drops below altitude 10° 05:36:11 10° 141° (SE) 2,814 8.2 -14.1°
Sets 05:40:27 0° 118° (ESE) 3,836 9.7 -13.4°
